#timestamp,LO_Frequency,Hit 
1498248015.7,286045783.0,N
1498248035.5,286045783.5,N
1498248055.3,286045781.0,N
1498248075.2,286045782.4,N
1498248095.0,286045782.9,N
1498248095.9,286045782.9,N
1498248115.8,286045781.5,N
1498248135.6,286045783.6,N
1498248155.4,286045783.5,N
1498248175.3,286045780.9,N
1498248195.1,286045783.6,N
1498248215.8,286045780.6,N
1498248235.7,286045780.7,N
1498248255.5,286045780.8,N
1498248275.4,286045783.1,N
1498248295.2,286045783.1,N
1498248315.0,286045783.1,N
1498248315.9,286045783.1,N
1498248335.8,286045780.9,N
1498248355.6,286045781.1,N
1498248375.4,286045781.5,N
1498248395.3,286045781.4,N
1498248415.1,286045778.9,N
1498248435.9,286045781.3,N
1498248455.7,286045783.2,N
1498248475.5,286045780.9,N
1498248495.4,286045783.2,N
1498248515.2,286045782.4,N
1498248535.0,286045784.8,N
1498248536.0,286045784.8,N
1498248555.8,286045785.0,N
1498248575.6,286045963.5,N
1498248595.5,286045784.4,N
1498248615.3,286045785.2,N
1498248635.1,286045782.6,N
1498248655.9,286045783.2,N
1498248675.7,286045781.7,N
1498248695.6,286045781.8,N
1498248715.4,286045782.0,N
1498248735.2,286045781.9,N
1498248755.1,286045781.4,N
1498248756.0,286045781.4,N
1498248775.8,286045781.3,N
1498248795.7,286045781.3,N
1498248815.5,286045780.7,N
1498248835.3,286045779.3,N
1498248855.2,286045779.1,N
1498248875.9,286045778.9,N
1498248895.7,286045779.0,N
1498248915.6,286045781.0,N
1498248935.4,286045780.5,N
1498248955.3,286045779.3,N
1498248975.1,286045781.4,N
1498248976.0,286045781.4,N
1498248995.8,286045781.8,N
1498249015.7,286045781.7,N
1498249035.5,286045781.4,N
1498249055.3,286045779.6,N
1498249075.2,286045779.0,N
1498249095.0,286045783.5,N
1498249095.9,286045783.5,N
1498249115.8,286045781.0,N
1498249135.6,286045780.9,N
1498249185.5,286045780.8,Y
1498249195.4,286046332.6,N
1498249215.2,286047001.0,N
1498249235.1,286046998.2,N
1498249236.0,286046998.2,N
1498249255.8,286047000.7,N
1498249275.6,286046999.8,N
1498249295.5,286047002.6,N
1498249315.3,286046999.9,N
1498249335.1,286047000.8,N
1498249355.9,286046998.1,N
1498249375.7,286046998.6,N
1498249395.6,286046999.7,N
1498249415.4,286046999.7,N
1498249435.2,286046999.7,N
1498249455.1,286047002.5,N
1498249456.0,286047002.5,N
1498249475.8,286046999.9,N
1498249495.7,286047000.7,N
1498249515.5,286047001.0,N
1498249535.3,286047002.4,N
1498249555.2,286047002.2,N
1498249575.0,286047000.1,N
1498249575.9,286047000.1,N
1498249595.7,286046999.7,N
1498249615.6,286047002.3,N
1498249635.4,286047000.6,N
1498249655.3,286047001.2,N
1498249675.1,286047001.1,N
1498249676.0,286047001.1,N
1498249695.8,286047000.5,N
1498249715.7,286047000.9,N
1498249735.5,286047000.2,N
1498249755.3,286047000.7,N
1498249775.2,286047000.3,N
1498249795.0,286046999.9,N
1498249795.9,286046999.9,N
1498249815.8,286046999.9,N
1498249835.6,286047000.0,N
1498249855.4,286047000.3,N
1498249875.3,286047001.0,N
1498249895.1,286047001.0,N
1498249915.9,286046998.2,N
1498249935.7,286047000.4,N
1498249955.5,286047000.6,N
1498249975.4,286046999.9,N
1498249995.2,286047000.4,N
1498250015.0,286047002.4,N
1498250015.9,286047002.4,N
1498250035.8,286047002.8,N
1498250055.6,286047000.4,N
1498250075.5,286047000.1,N
1498250095.3,286047000.5,N
1498250115.1,286047002.4,N
1498250135.9,286047001.3,N
1498250155.7,286047001.9,N
1498250175.6,286047002.1,N
1498250195.4,286046999.7,N
1498250215.2,286046999.7,N
1498250235.1,286047001.0,N
1498250236.0,286047001.0,N
1498250255.8,286046998.1,N
1498250275.6,286047001.2,N
1498250295.5,286047002.7,N
1498250315.3,286047002.4,N
1498250335.2,286047002.4,N
1498250355.9,286047002.3,N
1498250375.7,286047002.6,N
1498250395.6,286047000.0,N
1498250415.4,286047002.6,N
1498250435.2,286047002.3,N
1498250455.1,286047002.8,N
1498250456.0,286047002.8,N
1498250475.8,286047002.1,N
1498250495.7,286047002.0,N
1498250515.5,286047002.3,N
1498250535.3,286047000.5,N
1498250555.2,286047000.9,N
1498250575.0,286047002.3,N
1498250575.9,286047002.3,N
1498250595.8,286047002.4,N
1498250615.6,286047004.4,N
1498250635.4,286047002.7,N
1498250655.3,286047002.3,N
1498250675.1,286047002.8,N
1498250695.8,286047000.3,N
1498250715.7,286047001.8,N
1498250735.5,286047002.2,N
1498250755.4,286047001.9,N
1498250775.2,286047001.8,N
1498250795.0,286047001.4,N
1498250795.9,286047001.4,N
1498250815.8,286047004.4,N
1498250835.6,286047001.9,N
1498250855.5,286047002.8,N
1498250875.3,286047001.7,N
1498250895.1,286047001.4,N
1498250915.9,286047001.8,N
1498250935.7,286047004.0,N
1498250955.5,286047004.3,N
1498250975.4,286047001.7,N
1498250995.2,286047002.1,N
1498251015.1,286047000.2,N
1498251016.0,286047000.2,N
1498251035.8,286047000.3,N
1498251055.6,286047000.1,N
1498251075.5,286047000.1,N
1498251095.3,286047002.8,N
1498251115.1,286047002.7,N
1498251135.9,286047000.2,N
1498251155.7,286047000.3,N
1498251175.6,286047001.6,N
1498251195.4,286047002.1,N
1498251215.2,286047001.9,N
1498251235.1,286047003.8,N
1498251236.0,286047003.8,N
1498251255.8,286047001.8,N
1498251275.7,286047002.2,N
1498251295.5,286047002.8,N
1498251315.3,286047002.5,N
1498251335.2,286046999.7,N
1498251355.9,286046999.7,N
1498251375.7,286047000.4,N
1498251395.6,286046999.9,N
1498251415.4,286047002.8,N
1498251435.3,286047002.7,N
1498251455.1,286047002.7,N
1498251456.0,286047002.7,N
1498251475.8,286047000.2,N
1498251495.7,286046999.9,N
1498251515.5,286047000.0,N
1498251535.3,286047002.0,N
1498251555.2,286047002.7,N
1498251575.0,286047000.1,N
1498251575.9,286047000.1,N
1498251595.8,286047000.1,N
